User: anonymous   Login
Location: *
(0.1100°N, 5.5000°E)
Time: 18:55:00
(UTC+00:00)
Language:

deb Kosmos-2227 - Orbit

View from above orbital plane
View from above orbital plane
View from above satellite
View from above satellite

Ground track
Ground track

The orbit data is extracted from the following two-line orbital elements,

1 22437U 92093EE  24146.25948591  .00004508  00000-0  12345-2 0  9995
2 22437  71.3352 340.9603 0037325  11.7706 348.4299 14.47245329639624
Epoch (UTC): 25 May 2024 06:13:39
Eccentricity: 0.0037325
inclination: 71.3352°
perigee height: 708 km
apogee height: 761 km
right ascension of ascending node: 340.9603°
argument of perigee: 11.7706°
revolutions per day: 14.47245329
mean anomaly at epoch: 348.4299°
orbit number at epoch: 63962

The dashed part of the orbit path shows where the satellite is in the earth's shadow,  

DLR